Starlink 32495

operational
NORAD ID: 62052 Int'l Des: 2024-216 Owner: SPXS Country: US Constellation: starlink
LEOCIRCULAR

Starlink 32495について

説明を読み込み中...

リアルタイム位置

3D地球を読み込み中...

次回通過

高度履歴

Altitude vs Time

uPlot chart will show altitude changes over time

軌道要素

1 62052U 24216W 25351.33977443 .00022339 00000-0 81816-3 0 9992
2 62052 43.0013 8.1112 0001016 254.1508 105.9232 15.27608248 61208
Epoch: Dec 17, 2025 • Age: 14 hours

現在のステータス

高度 483.6 km
速度 7.62 km/s
衛星直下点 -5.81°S, 61.83°W
打ち上げ日 Nov 21, 2024
運用期間 1 years
タイプ internet

技術仕様

分類 Payload
質量 730.00 kg
乾燥質量 700.00 kg
総質量 730.00 kg
長さ 0.30 m
直径 4.10 m
スパン 29.00 m
形状 Box + pan
製造者 SPXS
バスタイプ Starlink V2M
フェーズステータス In Orbit
所有者/国 SPXS/US

大規模コンステレーション

Loading constellations...